Weather History for Morelia, Mexico

Change the Weather History Date:

Wednesday, October 26, 2011

  Actual Average Record
Temperature  
Mean Temperature 58 °F -  
Max Temperature 80 °F 75 °F 84 °F (2012)
Min Temperature 37 °F 48 °F 32 °F (1999)
Degree Days  
Heating Degree Days 6    
Growing Degree Days 8 (Base 50)    
Moisture  
Dew Point 39 °F    
Average Humidity 56    
Maximum Humidity 89    
Minimum Humidity 12    
Precipitation  
Precipitation 0.00 in 0.03 in - ()
Sea Level Pressure  
Sea Level Pressure 30.03 in    
Wind  
Wind Speed 2 mph ()    
Max Wind Speed 12 mph    
Max Gust Speed -    
Visibility 7.1 miles    
Events      
Averages and records for this station are not official NWS values.
T = Trace of Precipitation, MM = Missing Value Source: Averaged Metar Reports

Daily Weather History Graph

Daily Weather History Graph

Search for Another Location

Airport:

Trip Planner

Search our weather history database for the weather conditions in past years. The results will help you decide how hot, cold, wet, or windy it might be!

Date:

Astronomy

Oct. 26, 2011 Rise Set
Actual Time 7:42 AM CDT 7:13 PM CDT
Civil Twilight 7:20 AM CDT 7:35 PM CDT
Nautical Twilight 6:54 AM CDT 8:01 PM CDT
Astronomical Twilight 6:28 AM CDT 8:27 PM CDT
Moon 7:26 AM CDT (10/26) 7:07 PM CDT (10/26)
Length of Visible Light 12h 15m
Length of Day
11h 30m
Waning Crescent, 0% of the Moon is Illuminated
Oct 26
Waning Crescent
Oct 26
New
Nov 2
First Quarter
Nov 10
Full
Nov 18
Last Quarter

Hourly Weather History & Observations

Time (CDT) Temp. Dew Point Humidity Pressure Visibility Wind Dir Wind Speed Gust Speed Precip Events Conditions
12:46 AM 48.2 °F 37.4 °F 66% 29.95 in 7.0 mi Calm Calm - N/A   Clear
12:50 AM 54 °F 45 °F 62% 29.88 in 5 mi SSW 4.5 mph - -  
1:42 AM 46.4 °F 39.2 °F 76% 30.23 in 7.0 mi Calm Calm - N/A   Clear
2:44 AM 44.6 °F 37.4 °F 76% 30.23 in 7.0 mi Calm Calm - N/A   Clear
3:43 AM 42.8 °F 35.6 °F 76% 29.96 in 7.0 mi Calm Calm - N/A   Clear
4:43 AM 41.0 °F 37.4 °F 87% 30.20 in 7.0 mi Calm Calm - N/A   Clear
5:44 AM 41.0 °F 37.4 °F 87% 30.20 in 7.0 mi Calm Calm - N/A   Clear
6:46 AM 39.2 °F 35.6 °F 87% 29.90 in 7.0 mi Calm Calm - N/A   Clear
6:55 AM 42 °F 40 °F 89% 29.97 in 5 mi SSW 2.2 mph - -  
7:50 AM 37.4 °F 33.8 °F 87% 30.20 in 7.0 mi Calm Calm - N/A   Clear
9:03 AM 42.8 °F 35.6 °F 76% 30.20 in 7.0 mi Calm Calm - N/A   Clear
9:50 AM 54 °F 42 °F 54% 30.10 in 9 mi West 2.2 mph - -  
9:51 AM 50.0 °F 39.2 °F 66% 29.99 in 7.0 mi Calm Calm - N/A   Clear
10:49 AM 59.0 °F 39.2 °F 48% 30.23 in 7.0 mi Calm Calm - N/A   Clear
11:47 AM 64.4 °F 39.2 °F 40% 30.20 in 7.0 mi NW 6.9 mph - N/A   Clear
12:49 PM 68.0 °F 35.6 °F 30% 29.90 in 7.0 mi Calm Calm - N/A   Clear
12:50 PM 73 °F 35 °F 15% 30.01 in 9 mi North 4.5 mph - -  
1:53 PM 73.4 °F 28.4 °F 19% 30.13 in 7.0 mi North 3.5 mph - N/A   Clear
2:46 PM 75.2 °F 37.4 °F 25% 30.09 in 8.0 mi North 9.2 mph - N/A   Clear
3:50 PM 78 °F 35 °F 12% 29.81 in 9 mi NE 6.7 mph - -  
3:51 PM 77.0 °F 28.4 °F 17% 29.77 in 7.0 mi NNW 9.2 mph - N/A   Clear
4:41 PM 80.6 °F 30.2 °F 16% 30.04 in 7.0 mi North 11.5 mph - N/A   Clear
5:52 PM 78.8 °F 33.8 °F 20% 30.04 in 7.0 mi NNW 5.8 mph - N/A   Clear
6:50 PM 74 °F 33 °F 13% 29.68 in 9 mi NE 4.5 mph - -  
7:47 PM 64.4 °F 50.0 °F 59% 30.05 in 7.0 mi SW 11.5 mph - N/A   Clear
8:40 PM 62.6 °F 48.2 °F 59% 30.06 in 7.0 mi Calm Calm - N/A   Clear
9:42 PM 57.2 °F 48.2 °F 72% 29.82 in 7.0 mi Calm Calm - N/A   Clear
9:50 PM 61 °F 56 °F 79% 29.69 in 6 mi WSW 4.5 mph - -  
10:43 PM 53.6 °F 48.2 °F 82% 30.12 in 7.0 mi Calm Calm - N/A   Clear
11:42 PM 53.6 °F 48.2 °F 82% 30.13 in 7.0 mi Calm Calm - N/A   Clear